Simultaneous Nadir Overpasses (SNOs) Predictions

Prediction of SNOs between NOAA-20 and AQUA Satellite Orbit:

Table of predicted SNOs for the next 14.0 days since TLE Epoch: 11/2/2019
Index Date (NOAA-20) Time (NOAA-20) Lat,Lon (NOAA-20) SZA (NOAA-20 ) Date (AQUA) Time (AQUA) Lat,Lon (AQUA) SZA (AQUA ) Distance(km) Time Diff (sec)
1 11/02/2019 14:29:39 -75.99, 21.49 69.26 11/02/2019 14:29:46 -75.99, 21.49 69.26 0.26 7
2 11/02/2019 15:20:04 76.85,-168.03 109.76 11/02/2019 15:18:53 76.85,-167.98 109.82 1.20 71
3 11/05/2019 05:56:08 75.08, -32.88 112.55 11/05/2019 05:57:04 75.09, -32.83 112.48 1.78 56
4 11/05/2019 06:46:26 -76.38, 138.63 68.89 11/05/2019 06:46:06 -76.37, 138.60 68.87 0.78 20
5 11/07/2019 22:12:52 75.58, 84.38 112.79 11/07/2019 22:13:21 75.58, 84.42 112.75 1.02 29
6 11/07/2019 23:03:11 -76.80,-104.00 68.60 11/07/2019 23:02:24 -76.79,-104.08 68.54 2.11 47
7 11/10/2019 13:43:30 -61.54, 11.65 53.04 11/10/2019 13:44:43 -61.35, 12.88 53.51 68.84 73
8 11/10/2019 14:29:37 76.06,-158.25 113.01 11/10/2019 14:29:39 76.06,-158.27 113.01 0.51 2
9 11/10/2019 15:19:32 -78.24, 18.49 69.62 11/10/2019 15:18:18 -78.31, 18.18 69.52 10.67 74
10 11/13/2019 05:56:05 -75.29, 147.73 65.42 11/13/2019 05:56:57 -75.29, 147.73 65.48 0.11 52
11 11/13/2019 06:46:21 76.58, -40.62 113.15 11/13/2019 06:45:56 76.57, -40.72 113.19 2.72 25
12 11/15/2019 22:12:56 -75.50, -95.88 64.95 11/15/2019 22:13:20 -75.51, -95.78 65.00 2.90 24




NCC Satellite Simultaneous Nadir Overpasses (SNOs) Prediction Service
